AEE201 LGSR-LGIR

Flight info

Callsign AEE201
Flight time 0h 19m
Altitude 11000
Route GIVIS J62 NAVUS
Aircraft A320/M-SDE3FGHIRWY/LB1

Departure

Time 2026-04-24 21:09
Airport Santorini International Airport (LGSR)

Arrival

Time 2026-04-24 21:29
Airport Heraklion International Nikos Kazantzakis Airport (LGIR)
Time Latitude Longitude Altitude Speed Heading
2026-04-24 20:56 36.40367 25.47421 52 ft 0 kts 31°
2026-04-24 21:03 36.40377 25.47429 73 ft 3 kts 31°
2026-04-24 21:03 36.40403 25.47447 51 ft 6 kts 31°
2026-04-24 21:03 36.40418 25.47496 52 ft 7 kts 101°
2026-04-24 21:04 36.40376 25.47537 52 ft 9 kts 158°
2026-04-24 21:04 36.40313 25.47567 52 ft 11 kts 159°
2026-04-24 21:04 36.40238 25.47604 52 ft 12 kts 159°
2026-04-24 21:04 36.40151 25.47643 52 ft 14 kts 160°
2026-04-24 21:05 36.40052 25.47688 52 ft 16 kts 160°
2026-04-24 21:05 36.39941 25.47738 52 ft 18 kts 160°
2026-04-24 21:05 36.39818 25.47795 52 ft 20 kts 158°
2026-04-24 21:05 36.39684 25.47862 52 ft 22 kts 158°
2026-04-24 21:06 36.39536 25.47936 52 ft 24 kts 158°
2026-04-24 21:06 36.39373 25.48010 52 ft 26 kts 160°
2026-04-24 21:06 36.39235 25.48073 52 ft 20 kts 160°
2026-04-24 21:06 36.39129 25.48122 52 ft 13 kts 159°
2026-04-24 21:07 36.39045 25.48161 52 ft 8 kts 159°
2026-04-24 21:07 36.39009 25.48214 52 ft 9 kts 96°
2026-04-24 21:07 36.39019 25.48265 52 ft 9 kts 72°
2026-04-24 21:07 36.39029 25.48303 53 ft 3 kts 70°
2026-04-24 21:08 36.39060 25.48315 54 ft 7 kts 352°
2026-04-24 21:08 36.39095 25.48303 54 ft 0 kts 338°
2026-04-24 21:08 36.39108 25.48297 54 ft 4 kts 339°
2026-04-24 21:08 36.39175 25.48266 53 ft 33 kts 339°
2026-04-24 21:09 36.39422 25.48150 53 ft 80 kts 339°
2026-04-24 21:09 36.40126 25.47821 55 ft 133 kts 339°
2026-04-24 21:09 36.41103 25.47396 316 ft 150 kts 343°
2026-04-24 21:09 36.42079 25.47028 903 ft 146 kts 347°
2026-04-24 21:10 36.43074 25.46741 1485 ft 146 kts 349°
2026-04-24 21:10 36.44075 25.46464 1977 ft 152 kts 350°
2026-04-24 21:10 36.45182 25.46159 2217 ft 174 kts 350°
2026-04-24 21:10 36.46451 25.45811 2446 ft 200 kts 350°
2026-04-24 21:11 36.47851 25.45422 3041 ft 209 kts 350°
2026-04-24 21:11 36.49291 25.44993 3684 ft 221 kts 343°
2026-04-24 21:11 36.50619 25.43851 4035 ft 251 kts 309°
2026-04-24 21:11 36.51222 25.41734 4594 ft 273 kts 271°
2026-04-24 21:12 36.50712 25.39456 5370 ft 281 kts 236°
2026-04-24 21:12 36.49261 25.37880 6230 ft 281 kts 202°
2026-04-24 21:12 36.47380 25.37273 7116 ft 279 kts 184°
2026-04-24 21:12 36.45471 25.37139 7985 ft 279 kts 178°
2026-04-24 21:13 36.43502 25.37135 8867 ft 280 kts 178°
2026-04-24 21:13 36.41567 25.37114 9700 ft 283 kts 179°
2026-04-24 21:13 36.39554 25.37026 10321 ft 294 kts 181°
2026-04-24 21:13 36.37429 25.36868 10527 ft 318 kts 182°
2026-04-24 21:14 36.35192 25.36644 10841 ft 334 kts 184°
2026-04-24 21:14 36.32858 25.36369 10964 ft 343 kts 184°
2026-04-24 21:14 36.30417 25.36063 10978 ft 358 kts 184°
2026-04-24 21:14 36.27919 25.35742 10977 ft 361 kts 184°
2026-04-24 21:15 36.25418 25.35416 10978 ft 362 kts 184°
2026-04-24 21:15 36.22910 25.35092 10978 ft 362 kts 184°
2026-04-24 21:15 36.20407 25.34774 10979 ft 362 kts 184°
2026-04-24 21:15 36.17903 25.34460 10980 ft 362 kts 184°
2026-04-24 21:16 36.15399 25.34158 10977 ft 361 kts 182°
2026-04-24 21:16 36.12893 25.34222 10980 ft 360 kts 175°
2026-04-24 21:16 36.10392 25.34396 10979 ft 360 kts 175°
2026-04-24 21:16 36.07892 25.34575 10988 ft 360 kts 175°
2026-04-24 21:17 36.05389 25.34757 10980 ft 361 kts 175°
2026-04-24 21:17 36.02882 25.34942 10980 ft 361 kts 175°
2026-04-24 21:17 36.00404 25.35122 10980 ft 362 kts 175°
2026-04-24 21:17 35.97890 25.35304 10983 ft 362 kts 175°
2026-04-24 21:18 35.95373 25.35483 10986 ft 362 kts 175°
2026-04-24 21:18 35.92855 25.35662 10985 ft 362 kts 175°
2026-04-24 21:18 35.90336 25.35845 10986 ft 363 kts 175°
2026-04-24 21:18 35.87812 25.36028 10989 ft 363 kts 175°
2026-04-24 21:19 35.85294 25.36212 10996 ft 363 kts 175°
2026-04-24 21:19 35.82780 25.36392 10994 ft 363 kts 175°
2026-04-24 21:19 35.80257 25.36571 10994 ft 363 kts 175°
2026-04-24 21:19 35.77732 25.36748 10995 ft 364 kts 175°
2026-04-24 21:20 35.72735 25.37102 10721 ft 349 kts 175°
2026-04-24 21:20 35.70349 25.37272 10435 ft 338 kts 175°
2026-04-24 21:20 35.68068 25.37432 10318 ft 316 kts 175°
2026-04-24 21:21 35.65951 25.37582 10087 ft 296 kts 175°
2026-04-24 21:21 35.63922 25.37728 9561 ft 289 kts 175°
2026-04-24 21:21 35.61928 25.37873 8925 ft 285 kts 175°
2026-04-24 21:21 35.59949 25.38016 8285 ft 283 kts 175°
2026-04-24 21:22 35.57991 25.38156 7662 ft 281 kts 175°
2026-04-24 21:22 35.56052 25.38293 7041 ft 279 kts 175°
2026-04-24 21:22 35.54103 25.38404 6396 ft 279 kts 181°
2026-04-24 21:22 35.52228 25.38190 6307 ft 269 kts 184°
2026-04-24 21:23 35.50410 25.37969 6234 ft 258 kts 184°
2026-04-24 21:23 35.48642 25.37760 5998 ft 254 kts 184°
2026-04-24 21:23 35.46885 25.37549 5665 ft 253 kts 184°
2026-04-24 21:23 35.45158 25.37338 5331 ft 245 kts 184°
2026-04-24 21:24 35.43487 25.37133 5008 ft 237 kts 184°
2026-04-24 21:24 35.41852 25.36935 4684 ft 236 kts 184°
2026-04-24 21:24 35.40217 25.36738 4361 ft 236 kts 184°
2026-04-24 21:24 35.38582 25.36541 4034 ft 236 kts 184°
2026-04-24 21:25 35.36946 25.36343 3722 ft 236 kts 184°
2026-04-24 21:25 35.35323 25.36147 3391 ft 232 kts 184°
2026-04-24 21:25 35.33791 25.35686 3064 ft 224 kts 214°
2026-04-24 21:25 35.32886 25.34260 2802 ft 211 kts 258°
2026-04-24 21:26 35.32824 25.32502 2492 ft 204 kts 276°
2026-04-24 21:26 35.32944 25.30812 2191 ft 195 kts 278°
2026-04-24 21:26 35.33085 25.29204 1922 ft 185 kts 278°
2026-04-24 21:26 35.33219 25.27667 1653 ft 173 kts 278°
2026-04-24 21:27 35.33330 25.26304 1405 ft 151 kts 278°
2026-04-24 21:27 35.33428 25.25063 1182 ft 142 kts 277°
2026-04-24 21:27 35.33522 25.23868 970 ft 140 kts 275°
2026-04-24 21:27 35.33613 25.22687 762 ft 139 kts 274°
2026-04-24 21:28 35.33702 25.21506 556 ft 139 kts 274°
2026-04-24 21:28 35.33795 25.20324 355 ft 139 kts 274°
2026-04-24 21:28 35.33895 25.19141 140 ft 140 kts 274°
2026-04-24 21:28 35.33968 25.18083 93 ft 90 kts 275°
2026-04-24 21:29 35.34002 25.17632 92 ft 36 kts 275°
2026-04-24 21:29 35.34019 25.17364 90 ft 23 kts 274°
2026-04-24 21:29 35.34016 25.17175 90 ft 21 kts 254°
2026-04-24 21:29 35.33971 25.17074 91 ft 8 kts 208°
2026-04-24 21:30 35.33944 25.17104 90 ft 4 kts 116°
2026-04-24 21:30 35.33939 25.17131 91 ft 2 kts 98°
2026-04-24 21:30 35.33938 25.17141 92 ft 0 kts 98°
2026-04-24 21:30 35.33934 25.17175 90 ft 5 kts 98°
2026-04-24 21:31 35.33917 25.17193 91 ft 2 kts 156°
2026-04-24 21:31 35.33910 25.17194 91 ft 0 kts 171°